Regional Weather Roundup
Issued by NWS

Home | Current Version | Previous Version | Graphics & Text | Print | Product List | Glossary On
Versions: 1 2 3 4 5 6 7 8 9 10 11 12 13 14 15 16 17 18 19 20 21 22 23 24 25 26 27 28 29 30 31 32 33 34 35 36 37 38 39 40 41 42 43 44 45 46 47 48 49 50
000
ASUS45 KABQ 281901
RWRNM
NEW MEXICO REGIONAL WEATHER ROUNDUP
NATIONAL WEATHER SERVICE ALBUQUERQUE NM
100 PM MDT THU JUL 28 2016

NOTE: "FAIR" MEANS FEW OR NO CLOUDS BELOW 12,000 FEET AGL WITH NO
       SIGNIFICANT WEATHER OR OBSTRUCTIONS TO VISION.

      THIS PRODUCT IS RELEASED AS TWO VERSIONS.  ONE VERSION NEAR
      THE TOP OF THE HOUR CONTAINING PRELIMINARY DATA FROM ALBUQUERQUE
      AND OTHER STATIONS.  A FINAL VERSION WITH ADDITIONAL DATA IS
      ISSUED ABOUT 10 MINUTES AFTER THE HOUR.

NMZ501-503-504-510>518-282000-
NORTHWEST PLATEAU/NORTHCENTRAL MOUNTAINS

CITY           SKY/WX    TMP DP  RH WIND       PRES   REMARKS
FARMINGTON     FAIR      92  46  20 S8        30.17F
LOS ALAMOS     FAIR      81  46  30 CALM      30.36S
SANTA FE       FAIR      90  42  18 W9G17     30.26F
TAOS           FAIR      84  43  23 SW8       30.33
ANGEL FIRE     FAIR      78  43  29 SW12      30.42F

$$
NMZ402-403-502-505>509-282000-
WESTCENTRAL MOUNTAINS/SOUTHWEST MOUNTAINS

CITY           SKY/WX    TMP DP  RH WIND       PRES   REMARKS
GALLUP         FAIR      91  40  16 NW7G16    30.27F
GRANTS         FAIR      92  43  18 S9        30.29F
SILVER CITY    FAIR      85  53  33 S3        30.23

$$
NMZ407-409-411-412-282000-
SOUTHERN DESERTS

CITY           SKY/WX    TMP DP  RH WIND       PRES   REMARKS
LORDSBURG      FAIR      93  52  24 SE5       30.13F
DEMING         FAIR      95  53  24 VRB6      30.12F
LAS CRUCES     FAIR      91  49  23 CALM      30.15F
HOLLOMAN AFB   FAIR      93  54  27 SW9       30.09
ALAMOGORDO     PTSUNNY   90  54  29 W10       30.12
T OR C         FAIR      91  51  25 VRB6      30.17F

$$
NMZ519>523-282000-
CENTRAL VALLEYS/CENTRAL HIGHLANDS

CITY           SKY/WX    TMP DP  RH WIND       PRES   REMARKS
ALBUQUERQUE    FAIR      89  46  22 W3        30.21F
DOUBLE EAGLE   MOSUNNY   91  48  22 VRB5      30.25F
MORIARTY ARPT  FAIR      86  38  18 SW3       30.29F
CLINES CORNERS FAIR      83  50  31 MISG      30.35F
BELEN          FAIR      91  42  17 NE3       30.19F
SOCORRO        FAIR      93  47  20 E5        30.18F

$$
NMZ524>526-539-540-282000-
SOUTHCENTRAL MOUNTAINS

CITY           SKY/WX    TMP DP  RH WIND       PRES   REMARKS
RUIDOSO          N/A     81  48  32 SE13G23   30.37F

$$
NMZ527>531-282000-
NORTHEAST HIGHLANDS/NORTHEAST PLAINS

CITY           SKY/WX    TMP DP  RH WIND       PRES   REMARKS
LAS VEGAS      CLOUDY    79  40  24 NW18G24   30.33R
RATON          FAIR      87  49  26 S14       30.23F
CLAYTON        FAIR      88  57  34 S21G28    30.16F

$$
NMZ532>537-282000-
EASTCENTRAL PLAINS

CITY           SKY/WX    TMP DP  RH WIND       PRES   REMARKS
TUCUMCARI      FAIR      90  53  28 VRB7      30.12F
CANNON AFB     FAIR      86  58  38 SE6       30.16
CLOVIS AIRPORT FAIR      88  57  35 S5        30.17F

$$
NMZ028-029-538-282000-
SOUTHEAST PLAINS

CITY           SKY/WX    TMP DP  RH WIND       PRES   REMARKS
ROSWELL        FAIR      92  57  30 VRB7      30.11F
ARTESIA        FAIR      91  55  29 CALM      30.10F
CARLSBAD       FAIR      93  59  31 E9        30.06F
HOBBS          PTSUNNY   93  55  27 E12       30.11F


$$




USA.gov is the U.S. government's official web portal to all federal, state and local government web resources and services.